Weather History for Jackson, KY

Change the Weather History Date:

Friday, May 25, 2012

  Actual Average Record
Temperature  
Mean Temperature 75 °F 67 °F  
Max Temperature 86 °F 76 °F 88 °F (1991)
Min Temperature 64 °F 57 °F 42 °F (2013)
Degree Days  
Heating Degree Days 0 2  
Month to date heating degree days 26 90  
Since 1 July heating degree days 3327 4211  
Cooling Degree Days 10 4  
Month to date cooling degree days 96 67  
Year to date cooling degree days 186 113  
Growing Degree Days 25 (Base 50)    
Moisture  
Dew Point 61 °F    
Average Humidity 62    
Maximum Humidity 73    
Minimum Humidity 51    
Precipitation  
Precipitation 0.00 in 0.17 in 1.00 in (2006)
Month to date precipitation 3.81 4.15  
Year to date precipitation 19.31 19.46  
Snow  
Snow 0.00 in 0.00 in - ()
Month to date snowfall 0.0 0.0  
Since 1 July snowfall 14.2 23.5  
Snow Depth 0.00 in    
Sea Level Pressure  
Sea Level Pressure 30.06 in    
Wind  
Wind Speed 1 mph (SSE)    
Max Wind Speed 7 mph    
Max Gust Speed 13 mph    
Visibility 10 miles    
Events      
T = Trace of Precipitation, MM = Missing Value Source: NWS Daily Summary

Daily Weather History Graph

Daily Weather History Graph

Search for Another Location

Airport:

Trip Planner

Search our weather history database for the weather conditions in past years. The results will help you decide how hot, cold, wet, or windy it might be!

Date:

Astronomy

May. 25, 2012 Rise Set
Actual Time 6:16 AM EDT 8:44 PM EDT
Civil Twilight 5:46 AM EDT 9:14 PM EDT
Nautical Twilight 5:09 AM EDT 9:51 PM EDT
Astronomical Twilight 4:27 AM EDT 10:33 PM EDT
Moon 10:13 AM EDT (5/25) No Moon Set
Length of Visible Light 15h 28m
Length of Day
14h 27m
Waxing Crescent, 19% of the Moon is Illuminated
May 25
Waxing Crescent
May 28
First Quarter
Jun 4
Full
Jun 11
Last Quarter
Jun 19
New

Hourly Weather History & Observations

Time (EDT) Temp. Heat Index Dew Point Humidity Pressure Visibility Wind Dir Wind Speed Gust Speed Precip Events Conditions
12:53 AM 70.0 °F - 54.0 °F 57% 29.96 in 10.0 mi SSE 4.6 mph - N/A   Clear
1:53 AM 69.1 °F - 54.0 °F 58% 29.96 in 10.0 mi SSE 3.5 mph - N/A   Clear
2:53 AM 68.0 °F - 55.0 °F 63% 29.98 in 10.0 mi Calm Calm - N/A   Clear
3:53 AM 66.0 °F - 55.0 °F 68% 30.00 in 10.0 mi Calm Calm - N/A   Clear
4:53 AM 66.0 °F - 55.0 °F 68% 30.01 in 10.0 mi Calm Calm - N/A   Clear
5:53 AM 64.9 °F - 55.0 °F 70% 30.03 in 10.0 mi Variable 3.5 mph - N/A   Clear
6:53 AM 64.0 °F - 55.9 °F 75% 30.05 in 10.0 mi Calm Calm - N/A   Clear
7:53 AM 68.0 °F - 57.0 °F 68% 30.07 in 10.0 mi Calm Calm - N/A   Clear
8:53 AM 71.1 °F - 59.0 °F 66% 30.09 in 10.0 mi Calm Calm - N/A   Clear
9:53 AM 73.9 °F - 60.1 °F 62% 30.08 in 10.0 mi Calm Calm - N/A   Clear
10:53 AM 77.0 °F - 62.1 °F 60% 30.08 in 10.0 mi Variable 3.5 mph - N/A   Clear
11:53 AM 81.0 °F 82.5 °F 64.0 °F 56% 30.09 in 10.0 mi Variable 3.5 mph - N/A   Clear
12:53 PM 82.9 °F 84.6 °F 64.9 °F 54% 30.09 in 10.0 mi Variable 3.5 mph - N/A   Clear
1:53 PM 84.0 °F 85.8 °F 64.9 °F 53% 30.09 in 10.0 mi Variable 3.5 mph - N/A   Scattered Clouds
2:53 PM 84.9 °F 86.6 °F 64.9 °F 51% 30.08 in 10.0 mi Calm Calm - N/A   Partly Cloudy
3:53 PM 84.9 °F 86.6 °F 64.9 °F 51% 30.08 in 10.0 mi Calm Calm - N/A   Partly Cloudy
4:53 PM 86.0 °F 88.8 °F 66.9 °F 53% 30.08 in 10.0 mi Calm Calm - N/A   Clear
5:53 PM 84.0 °F 85.8 °F 64.9 °F 53% 30.07 in 10.0 mi Calm Calm - N/A   Partly Cloudy
6:53 PM 82.9 °F 85.0 °F 66.0 °F 56% 30.06 in 10.0 mi Calm Calm - N/A   Clear
7:53 PM 81.0 °F 82.7 °F 64.9 °F 58% 30.08 in 10.0 mi Calm Calm - N/A   Clear
8:53 PM 80.1 °F 82.1 °F 66.0 °F 62% 30.07 in 10.0 mi Calm Calm - N/A   Clear
9:53 PM 77.0 °F - 64.9 °F 66% 30.07 in 10.0 mi Calm Calm - N/A   Clear
10:53 PM 75.9 °F - 64.9 °F 69% 30.09 in 10.0 mi Calm Calm - N/A   Clear
11:53 PM 75.0 °F - 64.9 °F 71% 30.10 in 10.0 mi Calm Calm - N/A   Clear